User: anonymous   Login
Location: Hradec Kralove
(50.2170°N, 15.8330°E)
Time: 14:52:13
(UTC+01:00)
Language:

Altair - Orbit

View from above orbital plane
View from above orbital plane
View from above satellite
View from above satellite

Ground track
Ground track

The orbit data is extracted from the following two-line orbital elements,

1 00050U 60009B   23331.50915999 -.00000055  00000-0  29508-3 0  9997
2 00050  47.2279 176.6440 0113765 114.9455 246.3203 12.20135703823825
Epoch (UTC): 27 November 2023 12:13:11
Eccentricity: 0.0113765
inclination: 47.2279°
perigee height: 1501 km
apogee height: 1682 km
right ascension of ascending node: 176.6440°
argument of perigee: 114.9455°
revolutions per day: 12.20135703
mean anomaly at epoch: 246.3203°
orbit number at epoch: 82382

The dashed part of the orbit path shows where the satellite is in the earth's shadow,  

DLR